DELTA 1 R/B, 3315

Orbit data source: Space-Track

DELTA 1 R/B, 3315 is space debris originally from a launch on Thu, 04 Jul 1968 UTC launched from the Air Force Western Test Range (AFWTR). Debris objects in space refer to the collection of defunct objects orbiting the Earth. Examples of debris include non-operational satellites, rocket bodies, and fragments generated from explosions, collisions, or faulty payload assembly.

Loading next visibility...
Identifier
3315, 1968-055B
Orbit
Active
Country
Flag of USUS
Related business
Manufacturer
Thiokol/TE
Mission
Spacecraft
Bus & Motor
STAR 37, Unknown motor
Mass
65 kg wet, 65 kg dry
Launch date (UTC)
1968-07-04 (58 years ago)
Launch vehicle
Unknown
Launch site
Air Force Western Test Range (AFWTR)
Object type
Payload
Rocket body
Debris
Shape & HBR
SPHERE + CONE, 1.1 m
Radar Cross Section
Large (>1 m²)

Expand to show TLE details & history
Last TLE update: 18 hours ago

TLE from 18 hours ago
0 DELTA 1 R/B
1 03315U 68055B   26256.19663764  .00000104  00000-0  33654-3 0  9998
2 03315 120.6672 350.5932 2628237 286.2475  70.2285  9.25766982949706
Epoch: 2026-09-13T04:43Z
TLE epoch observation values (Epoch: 2026-09-13T04:43:09.492Z)
Latitude
22.87529°
Longitude
-86.81819°
Altitude
2,994.385 km
Speed
6.595 km/s
True Right ascension
22h 24m 39s
True Declination
22° 46' 54"
Sunlit
Object was in full shadow at epoch
Visualization orbit readout
Latitude
Unknown
Longitude
Unknown
Altitude
Unknown
Speed
Unknown
Apparent Right ascension
Unknown
Apparent Declination
Unknown
Sunlit
N/A
Visualization observer readout
Local Sidereal Time
15:02:36
Azimuth
Unknown
Elevation
Unknown
Doppler factor
Unknown
Orbital elements
Apogee altitude
5,719.993 km
Perigee altitude
684.175 km
Semi-major axis
9,580.221 km
Eccentricity
0.26282
Inclination
120.6672°
RAAN
350.5932°
Arg. of periapsis
286.2475°
True anomaly
100.58938°
Mean anomaly
70.2285°
Eccentric anomaly
85.23515°
Mean motion
2.31462 °/min
Orbital period
155.53 mins
BSTAR
0.00033654
Loading maneuver chart data...
Computing Atmospheric mass density...
Loading historical data...
Loading historical data...
Loading historical data...
Loading historical data...
Loading historical data...
Loading historical data...
Loading historical data...

Documentation

Showing up to 5 results
|